Change the Weather History Date:

Sunday, April 28, 2013

  Actual Average Record
Temperature  
Mean Temperature 53 °F -  
Max Temperature 60 °F 58 °F 77 °F (1968)
Min Temperature 46 °F 38 °F 30 °F (1955)
Degree Days  
Heating Degree Days 12    
Growing Degree Days 3 (Base 50)    
Moisture  
Dew Point 45 °F    
Average Humidity 81    
Maximum Humidity 100    
Minimum Humidity 45    
Precipitation  
Precipitation 0.10 in - - ()
Sea Level Pressure  
Sea Level Pressure 30.19 in    
Wind  
Wind Speed 9 mph (SW)    
Max Wind Speed 18 mph    
Max Gust Speed 26 mph    
Visibility 10 miles    
Events Rain    
Averages and records for this station are not official NWS values.
T = Trace of Precipitation, MM = Missing Value Source: NWS Daily Summary

Daily Weather History Graph

Daily Weather History Graph

Search for Another Location

Airport or City:

Trip Planner

Search our weather history database for the weather conditions in past years. The results will help you decide how hot, cold, wet, or windy it might be!

Date:

Astronomy

Apr. 28, 2013 Rise Set
Actual Time 5:58 AM PDT 8:17 PM PDT
Civil Twilight 5:24 AM PDT 8:51 PM PDT
Nautical Twilight 4:42 AM PDT 9:33 PM PDT
Astronomical Twilight 3:55 AM PDT 10:21 PM PDT
Moon 11:59 PM PDT (4/28) 8:12 AM PDT (4/28)
Length of Visible Light 15h 26m
Length of Day
14h 18m
Waning Gibbous, 88% of the Moon is Illuminated
Apr 28
Waning Gibbous
May 2
Last Quarter
May 9
New
May 17
First Quarter
May 24
Full

Hourly Weather History & Observations

Time (PDT) Temp. Windchill Dew Point Humidity Pressure Visibility Wind Dir Wind Speed Gust Speed Precip Events Conditions
12:03 AM 50.0 °F - 48.2 °F 94% 30.22 in 10.0 mi South 6.9 mph - N/A   Overcast
12:13 AM 50.0 °F - 48.2 °F 94% 30.22 in 10.0 mi SSW 6.9 mph - N/A   Overcast
12:18 AM 50.0 °F - 48.2 °F 94% 30.22 in 10.0 mi South 8.1 mph - N/A   Overcast
12:53 AM 50.0 °F - 48.2 °F 94% 30.23 in 10.0 mi South 5.8 mph - N/A   Overcast
12:58 AM 49.5 °F - 48.9 °F 98% 30.24 in 10.0 mi South 6.9 mph - N/A   Overcast
1:58 AM 49.3 °F - 48.6 °F 97% 30.24 in 10.0 mi SW 11.5 mph - N/A   Overcast
2:58 AM 49.5 °F - 48.7 °F 97% 30.22 in 10.0 mi SSW 10.4 mph - N/A   Overcast
3:03 AM 50.0 °F - 48.2 °F 94% 30.21 in 10.0 mi SSW 10.4 mph - N/A   Overcast
3:58 AM 48.7 °F - 48.6 °F 99% 30.22 in 10.0 mi South 10.4 mph - N/A   Overcast
4:58 AM 49.1 °F - 48.4 °F 97% 30.22 in 10.0 mi SSW 8.1 mph - N/A   Overcast
5:58 AM 49.1 °F - 47.7 °F 95% 30.22 in 10.0 mi SSW 8.1 mph - N/A   Overcast
6:23 AM 48.2 °F - 48.2 °F 100% 30.21 in 10.0 mi SSW 6.9 mph - N/A   Overcast
6:28 AM 48.2 °F - 48.2 °F 100% 30.20 in 10.0 mi SSW 5.8 mph - N/A   Overcast
6:58 AM 49.1 °F - 47.7 °F 95% 30.23 in 10.0 mi SSW 6.9 mph - N/A   Overcast
7:07 AM 50.0 °F - 48.2 °F 94% 30.21 in 10.0 mi SSW 8.1 mph - N/A Rain Light Rain
7:28 AM 50.0 °F - 48.2 °F 94% 30.21 in 10.0 mi SSW 6.9 mph - N/A   Overcast
7:58 AM 49.6 °F - 48.7 °F 97% 30.24 in 10.0 mi SW 9.2 mph - 0.00 in   Scattered Clouds
8:28 AM 51.8 °F - 48.2 °F 88% 30.22 in 10.0 mi SSW 10.4 mph - N/A   Overcast
8:58 AM 51.8 °F - 46.4 °F 82% 30.24 in 10.0 mi WSW 8.1 mph - N/A   Overcast
9:03 AM 53.6 °F - 48.2 °F 82% 30.22 in 10.0 mi SW 8.1 mph - N/A   Overcast
9:13 AM 51.8 °F - 46.4 °F 82% 30.22 in 10.0 mi West 8.1 mph - N/A   Overcast
9:18 AM 51.8 °F - 46.4 °F 82% 30.22 in 10.0 mi West 8.1 mph - N/A   Overcast
9:23 AM 51.8 °F - 46.4 °F 82% 30.22 in 10.0 mi WSW 10.4 mph - N/A   Overcast
9:58 AM 52.9 °F - 45.0 °F 74% 30.24 in 10.0 mi WSW 9.2 mph - N/A   Overcast
10:02 AM 53.6 °F - 46.4 °F 77% 30.22 in 10.0 mi WSW 10.4 mph - N/A Rain Light Rain
10:11 AM 53.6 °F - 44.6 °F 72% 30.22 in 10.0 mi SW 10.4 mph - N/A   Overcast
10:58 AM 55.8 °F - 44.2 °F 65% 30.24 in 10.0 mi WSW 12.7 mph - 0.00 in   Partly Cloudy
11:06 AM 55.4 °F - 44.6 °F 67% 30.22 in 10.0 mi WSW 18.4 mph 23.0 mph N/A Rain Light Rain
11:16 AM 51.8 °F - 46.4 °F 82% 30.22 in 8.0 mi WSW 17.3 mph 23.0 mph N/A Rain Light Rain
11:21 AM 51.8 °F - 46.4 °F 82% 30.23 in 8.0 mi West 17.3 mph 23.0 mph N/A Rain Light Rain
11:46 AM 51.8 °F - 46.4 °F 82% 30.22 in 10.0 mi SW 9.2 mph - N/A   Overcast
11:58 AM 52.9 °F - 46.6 °F 79% 30.24 in 10.0 mi WSW 11.5 mph - 0.00 in   Mostly Cloudy
12:28 PM 55.4 °F - 44.6 °F 67% 30.21 in 10.0 mi SSW 15.0 mph 17.3 mph N/A   Mostly Cloudy
12:38 PM 55.4 °F - 42.8 °F 63% 30.21 in 10.0 mi SW 12.7 mph - N/A   Overcast
12:58 PM 56.1 °F - 40.1 °F 55% 30.22 in 10.0 mi SW 11.5 mph 23.0 mph N/A   Overcast
1:58 PM 59.0 °F - 39.6 °F 49% 30.22 in 10.0 mi SW 18.4 mph 26.5 mph N/A   Mostly Cloudy
2:58 PM 60.4 °F - 39.0 °F 45% 30.19 in 10.0 mi SW 18.4 mph - N/A   Scattered Clouds
3:58 PM 57.9 °F - 39.0 °F 49% 30.19 in 10.0 mi WSW 15.0 mph - N/A   Overcast
4:58 PM 57.2 °F - 39.4 °F 51% 30.17 in 10.0 mi SW 13.8 mph - N/A   Overcast
5:58 PM 55.8 °F - 39.4 °F 54% 30.16 in 10.0 mi SW 12.7 mph 23.0 mph N/A   Overcast
6:58 PM 55.0 °F - 38.7 °F 54% 30.12 in 10.0 mi WSW 15.0 mph - N/A   Overcast
7:54 PM 53.6 °F - 41.0 °F 62% 30.09 in 10.0 mi SW 10.4 mph - N/A Rain Light Rain
7:58 PM 53.2 °F - 40.8 °F 63% 30.11 in 10.0 mi SW 8.1 mph - 0.00 in Rain Light Rain
8:07 PM 51.8 °F - 41.0 °F 67% 30.08 in 10.0 mi SW 9.2 mph - N/A   Overcast
8:13 PM 51.8 °F - 42.8 °F 71% 30.08 in 10.0 mi SSW 8.1 mph - N/A Rain Light Rain
8:58 PM 50.0 °F - 44.8 °F 82% 30.09 in 10.0 mi SSW 9.2 mph - 0.00 in Rain Light Rain
9:58 PM 47.8 °F - 46.8 °F 96% 30.06 in 10.0 mi South 6.9 mph - 0.05 in Rain Light Rain
10:58 PM 46.9 °F - 46.8 °F 99% 30.03 in 10.0 mi South 8.1 mph - 0.03 in Rain Light Rain
11:13 PM 46.4 °F 41.5 °F 46.4 °F 100% 30.00 in 10.0 mi South 10.4 mph - N/A Rain Light Rain
11:58 PM 47.3 °F - 47.1 °F 99% 29.99 in 10.0 mi South 11.5 mph - 0.02 in Rain Light Rain